Notices

What's New in latest Release from April 7th, 2021:

- Updated Glossary, including Speed of Maximum Gust, and Total Hourly Precipitation

- Updated national and regional climate services offices contacts and prices information

- Addition of station inventory lists for 1981-2010, 1971-2000, and 1961-1990 Normals.

If you haven't already, please take our survey and provide feedback about our website: https://eccc.sondage-survey.ca/f/LanguageSelection.aspx?s=442ca660-fcf1-47c0-95a9-59707d6fd709

Hourly Data Report for July 09, 2018

OTTAWA INTL A
ONTARIO
Current Station Operator: NAVCAN

45°19'00.000" N
75°40'00.000" W
114.90 m
6106001
71628
YOW

Download Data

Hourly Data (July 2018)
Hourly Data Report for July 9, 2018
TIME
LST
Temp Definition
°C
Dew Point Definition
°C
Rel Hum Definition
%
Precip. Amount Definition
mm

Wind Dir Definition
10's deg

Wind Spd Definition
km/h
Visibility Definition
km
Stn Press Definition
kPa
Hmdx Definition


Wind Chill Definition


Weather Definition


00:00 19.2 12.6 65   22 10 24.1 100.79     LegendNANA
01:00 18.1 12.6 70   22 10 24.1 100.77     Clear
02:00 17.3 12.5 73   21 11 24.1 100.74     LegendNANA
03:00 17.0 12.3 74   22 11 24.1 100.72     LegendNANA
04:00 16.1 12.3 78   20 13 24.1 100.72     Clear
05:00 15.7 12.4 81   19 14 24.1 100.68     LegendNANA
06:00 18.5 13.5 72   21 14 24.1 100.66     LegendNANA
07:00 21.5 13.9 62   22 14 24.1 100.62 25   Clear
08:00 24.4 14.6 54   23 17 24.1 100.59 28   LegendNANA
09:00 26.8 14.7 47   21 21 24.1 100.52 31   LegendNANA
10:00 29.7 14.3 38   21 23 24.1 100.41 33   Clear
11:00 30.7 15.5 39   21 21 24.1 100.39 35   LegendNANA
12:00 31.3 15.3 37   23 24 24.1 100.35 35   LegendNANA
13:00 31.4 14.8 36   21 24 24.1 100.27 35   Mainly Clear
14:00 32.8 13.9 31   22 23 24.1 100.20 36   LegendNANA
15:00 33.3 13.3 29   23 26 24.1 100.12 36   LegendNANA
16:00 32.4 13.4 31   23 28 24.1 100.07 35   Mostly Cloudy
17:00 33.1 14.6 32   21 20 24.1 99.98 37   LegendNANA
18:00 30.8 16.4 41   21 22 24.1 99.95 36   LegendNANA
19:00 28.9 15.8 45   21 20 24.1 99.97 33   Mainly Clear
20:00 27.2 14.7 46   21 16 24.1 100.00 31   LegendNANA
21:00 25.4 14.3 50   22 13 24.1 100.02 29   LegendNANA
22:00 24.1 15.2 57   22 13 24.1 100.00 28   Mainly Clear
23:00 23.2 15.7 62   23 10 24.1 99.97 28   LegendNANA

Notes on Data Quality.

Legend

  • E = Estimated
  • M = Missing
  • NA = Not Available*
  • [empty] = Indicates an unobserved value
Date modified: